Time,TemperatureF,DewpointF,PressureIn,WindDirection,WindDirectionDegrees,WindSpeedMPH,WindSpeedGustMPH,Humidity,HourlyPrecipIn,Conditions,Clouds,dailyrainin,SolarRadiationWatts/m^2,SoftwareType,DateUTC
2013-08-26 00:11:00,61.0,54.0,-100.00,East,87,7.0,13.0,78,0.01,,,0.35,0.000000,,2013-08-26 07:11:00,
2013-08-26 00:21:00,61.0,54.0,-100.00,East,87,7.0,13.0,78,0.01,,,0.35,0.000000,,2013-08-26 07:21:00,
2013-08-26 00:32:00,61.0,54.0,-100.00,East,87,7.0,13.0,78,0.01,,,0.35,0.000000,,2013-08-26 07:32:00,
2013-08-26 01:11:00,61.0,54.0,-100.00,East,92,7.0,13.0,77,0.00,,,0.35,0.000000,,2013-08-26 08:11:00,
2013-08-26 01:22:00,61.0,54.0,-100.00,East,92,7.0,13.0,77,0.00,,,0.35,0.000000,,2013-08-26 08:22:00,
2013-08-26 01:31:00,61.0,54.0,-100.00,East,92,7.0,13.0,77,0.00,,,0.35,0.000000,,2013-08-26 08:31:00,
2013-08-26 02:11:00,62.0,55.0,-100.00,East,94,6.0,9.0,78,0.00,,,0.35,0.000000,,2013-08-26 09:11:00,
2013-08-26 02:21:00,62.0,55.0,-100.00,East,94,6.0,9.0,78,0.00,,,0.35,0.000000,,2013-08-26 09:21:00,
2013-08-26 02:33:00,62.0,55.0,-100.00,East,94,6.0,9.0,78,0.00,,,0.35,0.000000,,2013-08-26 09:33:00,
2013-08-26 03:12:00,60.0,55.0,-100.00,ENE,78,5.0,9.0,83,0.00,,,0.35,0.000000,,2013-08-26 10:12:00,
2013-08-26 03:23:00,60.0,55.0,-100.00,ENE,78,5.0,9.0,83,0.00,,,0.35,0.000000,,2013-08-26 10:23:00,
2013-08-26 03:32:00,60.0,55.0,-100.00,ENE,78,5.0,9.0,83,0.00,,,0.35,0.000000,,2013-08-26 10:32:00,
2013-08-26 04:12:00,62.0,53.0,-100.00,ESE,110,7.0,12.0,73,0.00,,,0.35,0.000000,,2013-08-26 11:12:00,
2013-08-26 04:22:00,62.0,53.0,-100.00,ESE,110,7.0,12.0,73,0.00,,,0.35,0.000000,,2013-08-26 11:22:00,
2013-08-26 04:33:00,62.0,53.0,-100.00,ESE,110,7.0,12.0,73,0.00,,,0.35,0.000000,,2013-08-26 11:33:00,
2013-08-26 05:12:00,61.0,53.0,-100.00,SSE,147,6.0,11.0,76,0.00,,,0.35,0.000000,,2013-08-26 12:12:00,
2013-08-26 05:21:00,61.0,53.0,-100.00,SSE,147,6.0,11.0,76,0.00,,,0.35,0.000000,,2013-08-26 12:21:00,
2013-08-26 05:32:00,61.0,53.0,-100.00,SSE,147,6.0,11.0,76,0.00,,,0.35,0.000000,,2013-08-26 12:32:00,
2013-08-26 06:11:00,61.0,53.0,-100.00,SE,125,6.0,11.0,75,0.00,,,0.35,0.000000,,2013-08-26 13:11:00,
2013-08-26 06:21:00,61.0,53.0,-100.00,SE,125,6.0,11.0,75,0.00,,,0.35,0.000000,,2013-08-26 13:21:00,
2013-08-26 06:32:00,61.0,53.0,-100.00,SE,125,6.0,11.0,75,0.00,,,0.35,0.000000,,2013-08-26 13:32:00,
2013-08-26 07:11:00,61.0,54.0,-100.00,ESE,121,4.0,8.0,77,0.00,,,-99.99,13.000000,,2013-08-26 14:11:00,
2013-08-26 07:22:00,61.0,54.0,-100.00,ESE,121,4.0,8.0,77,0.00,,,-99.99,13.000000,,2013-08-26 14:22:00,
2013-08-26 07:32:00,61.0,54.0,-100.00,ESE,121,4.0,8.0,77,0.00,,,-99.99,13.000000,,2013-08-26 14:32:00,
2013-08-26 08:12:00,63.0,55.0,-100.00,ENE,72,4.0,6.0,75,0.00,,,0.35,134.000000,,2013-08-26 15:12:00,
2013-08-26 08:22:00,63.0,55.0,-100.00,ENE,72,4.0,6.0,75,0.00,,,0.35,134.000000,,2013-08-26 15:22:00,
2013-08-26 08:35:00,63.0,55.0,-100.00,ENE,72,4.0,6.0,75,0.00,,,0.35,134.000000,,2013-08-26 15:35:00,
2013-08-26 09:17:00,67.0,56.0,-100.00,East,82,6.0,11.0,69,0.00,,,0.35,398.000000,,2013-08-26 16:17:00,
2013-08-26 09:29:00,67.0,56.0,-100.00,East,82,6.0,11.0,69,0.00,,,0.35,398.000000,,2013-08-26 16:29:00,
2013-08-26 09:36:00,67.0,56.0,-100.00,East,82,6.0,11.0,69,0.00,,,0.35,398.000000,,2013-08-26 16:36:00,
2013-08-26 10:12:00,70.0,57.0,-100.00,East,85,9.0,14.0,63,0.00,,,0.35,607.000000,,2013-08-26 17:12:00,
2013-08-26 10:24:00,70.0,57.0,-100.00,East,85,9.0,14.0,63,0.00,,,0.35,607.000000,,2013-08-26 17:24:00,
2013-08-26 10:36:00,70.0,57.0,-100.00,East,85,9.0,14.0,63,0.00,,,0.35,607.000000,,2013-08-26 17:36:00,
2013-08-26 11:12:00,72.0,57.0,-100.00,East,98,8.0,13.0,60,0.00,,,0.35,896.000000,,2013-08-26 18:12:00,
2013-08-26 11:21:00,72.0,57.0,-100.00,East,98,8.0,13.0,60,0.00,,,0.35,896.000000,,2013-08-26 18:21:00,
2013-08-26 11:31:00,72.0,57.0,-100.00,East,98,8.0,13.0,60,0.00,,,0.35,896.000000,,2013-08-26 18:31:00,
2013-08-26 12:11:00,73.0,57.0,-100.00,SE,126,9.0,15.0,58,0.00,,,0.35,1144.000000,,2013-08-26 19:11:00,
2013-08-26 12:22:00,73.0,57.0,-100.00,SE,126,9.0,15.0,58,0.00,,,0.35,1144.000000,,2013-08-26 19:22:00,
2013-08-26 12:32:00,73.0,57.0,-100.00,SE,126,9.0,15.0,58,0.00,,,0.35,1144.000000,,2013-08-26 19:32:00,
2013-08-26 13:11:00,71.0,57.0,-100.00,SE,135,7.0,16.0,62,0.00,,,0.35,754.000000,,2013-08-26 20:11:00,
2013-08-26 13:21:00,71.0,57.0,-100.00,SE,135,7.0,16.0,62,0.00,,,0.35,754.000000,,2013-08-26 20:21:00,
2013-08-26 13:32:00,71.0,57.0,-100.00,SE,135,7.0,16.0,62,0.00,,,0.35,754.000000,,2013-08-26 20:32:00,
2013-08-26 14:11:00,76.0,57.0,-100.00,SE,131,5.0,14.0,51,0.00,,,0.35,793.000000,,2013-08-26 21:11:00,
2013-08-26 14:22:00,76.0,57.0,-100.00,SE,131,5.0,14.0,51,0.00,,,0.35,793.000000,,2013-08-26 21:22:00,
2013-08-26 14:35:00,76.0,57.0,-100.00,SE,131,5.0,14.0,51,0.00,,,0.35,793.000000,,2013-08-26 21:35:00,
2013-08-26 15:16:00,70.0,55.0,-100.00,ENE,61,12.0,17.0,58,0.00,,,0.35,481.000000,,2013-08-26 22:16:00,
2013-08-26 15:26:00,70.0,55.0,-100.00,ENE,61,12.0,17.0,58,0.00,,,0.35,481.000000,,2013-08-26 22:26:00,
2013-08-26 15:34:00,70.0,55.0,-100.00,ENE,61,12.0,17.0,58,0.00,,,0.35,481.000000,,2013-08-26 22:34:00,
2013-08-26 16:12:00,68.0,54.0,-100.00,NE,55,10.0,21.0,61,0.00,,,0.35,478.000000,,2013-08-26 23:12:00,
2013-08-26 16:21:00,68.0,54.0,-100.00,NE,55,10.0,21.0,61,0.00,,,0.35,478.000000,,2013-08-26 23:21:00,
2013-08-26 16:34:00,68.0,54.0,-100.00,NE,55,10.0,21.0,61,0.00,,,0.35,478.000000,,2013-08-26 23:34:00,
2013-08-26 17:11:00,67.0,51.0,-100.00,ENE,63,15.0,21.0,57,0.00,,,0.26,218.000000,,2013-08-27 00:11:00,
2013-08-26 17:21:00,67.0,51.0,-100.00,ENE,63,15.0,21.0,57,0.00,,,0.26,218.000000,,2013-08-27 00:21:00,
2013-08-26 17:32:00,67.0,51.0,-100.00,ENE,63,15.0,21.0,57,0.00,,,0.26,218.000000,,2013-08-27 00:32:00,
2013-08-26 18:12:00,65.0,48.0,-100.00,ENE,75,11.0,20.0,54,0.00,,,0.26,55.000000,,2013-08-27 01:12:00,
2013-08-26 18:21:00,65.0,48.0,-100.00,ENE,75,11.0,20.0,54,0.00,,,0.26,55.000000,,2013-08-27 01:21:00,
2013-08-26 18:32:00,65.0,48.0,-100.00,ENE,75,11.0,20.0,54,0.00,,,0.26,55.000000,,2013-08-27 01:32:00,
2013-08-26 19:12:00,67.0,49.0,-100.00,East,81,11.0,19.0,53,0.00,,,0.26,26.000000,,2013-08-27 02:12:00,
2013-08-26 19:21:00,67.0,49.0,-100.00,East,81,11.0,19.0,53,0.00,,,0.26,26.000000,,2013-08-27 02:21:00,
2013-08-26 19:32:00,67.0,49.0,-100.00,East,81,11.0,19.0,53,0.00,,,0.26,26.000000,,2013-08-27 02:32:00,
2013-08-26 20:12:00,65.0,50.0,-100.00,ESE,120,3.0,17.0,59,0.00,,,0.05,1.000000,,2013-08-27 03:12:00,
2013-08-26 20:22:00,65.0,50.0,-100.00,ESE,120,3.0,17.0,59,0.00,,,0.05,1.000000,,2013-08-27 03:22:00,
2013-08-26 20:36:00,65.0,50.0,-100.00,ESE,120,3.0,17.0,59,0.00,,,0.05,1.000000,,2013-08-27 03:36:00,
2013-08-26 20:37:00,67.0,48.0,-100.00,East,91,7.0,14.0,51,0.00,,,0.01,0.000000,,2013-08-27 03:37:00,
2013-08-26 21:18:00,67.0,48.0,-100.00,East,91,7.0,14.0,51,0.00,,,0.01,0.000000,,2013-08-27 04:18:00,
2013-08-26 21:29:00,67.0,48.0,-100.00,East,91,7.0,14.0,51,0.00,,,0.01,0.000000,,2013-08-27 04:29:00,
2013-08-26 22:13:00,66.0,50.0,-100.00,ENE,59,9.0,16.0,56,0.00,,,0.01,0.000000,,2013-08-27 05:13:00,
2013-08-26 22:23:00,66.0,50.0,-100.00,ENE,59,9.0,16.0,56,0.00,,,0.01,0.000000,,2013-08-27 05:23:00,
2013-08-26 22:34:00,66.0,50.0,-100.00,ENE,59,9.0,16.0,56,0.00,,,0.01,0.000000,,2013-08-27 05:34:00,
2013-08-26 23:12:00,66.0,49.0,-100.00,ENE,70,11.0,16.0,54,0.00,,,0.01,0.000000,,2013-08-27 06:12:00,
2013-08-26 23:21:00,66.0,49.0,-100.00,ENE,70,11.0,16.0,54,0.00,,,0.01,0.000000,,2013-08-27 06:21:00,
2013-08-26 23:32:00,66.0,49.0,-100.00,ENE,70,11.0,16.0,54,0.00,,,0.01,0.000000,,2013-08-27 06:32:00,